Time,TemperatureF,DewpointF,PressureIn,WindDirection,WindDirectionDegrees,WindSpeedMPH,WindSpeedGustMPH,Humidity,HourlyPrecipIn,Conditions,Clouds,dailyrainin,SoftwareType,DateUTC
2013-08-11 00:00:00,53.9,50.1,30.12,NW,309,2.0,3.0,87,0.00,,---,0.01,VWS V14.01,2013-08-11 04:00:00,
2013-08-11 00:01:00,53.0,50.5,30.13,NW,309,2.0,2.0,91,0.00,,---,0.00,VWS V14.01,2013-08-11 04:01:00,
2013-08-11 00:02:00,53.0,50.5,30.13,NW,309,0.0,3.0,91,0.00,,---,0.00,VWS V14.01,2013-08-11 04:02:00,
2013-08-11 00:08:00,53.0,50.5,30.13,NW,309,1.0,3.0,91,0.00,,---,0.00,VWS V14.01,2013-08-11 04:08:00,
2013-08-11 00:13:00,53.0,50.5,30.13,NW,309,2.0,3.0,91,0.00,,---,0.00,VWS V14.01,2013-08-11 04:13:00,
2013-08-11 00:18:00,53.0,50.5,30.13,NW,309,0.0,3.0,91,0.00,,---,0.00,VWS V14.01,2013-08-11 04:18:00,
2013-08-11 00:23:00,53.0,50.5,30.13,NW,307,1.0,4.0,91,0.00,,---,0.00,VWS V14.01,2013-08-11 04:23:00,
2013-08-11 00:28:00,53.0,50.5,30.13,NW,311,2.0,5.0,91,0.00,,---,0.00,VWS V14.01,2013-08-11 04:28:00,
2013-08-11 00:30:00,53.9,51.0,30.13,NW,309,1.0,3.0,90,0.00,,---,0.01,VWS V14.01,2013-08-11 04:30:00,
2013-08-11 00:33:00,53.0,50.7,30.13,WNW,301,2.0,3.0,92,0.00,,---,0.00,VWS V14.01,2013-08-11 04:33:00,
2013-08-11 00:38:00,52.9,50.3,30.13,WNW,301,0.0,3.0,91,0.00,,---,0.00,VWS V14.01,2013-08-11 04:38:00,
2013-08-11 00:43:00,52.7,50.5,30.13,WNW,300,1.0,3.0,92,0.00,,---,0.00,VWS V14.01,2013-08-11 04:43:00,
2013-08-11 00:48:00,52.6,50.0,30.12,WNW,300,1.0,3.0,91,0.00,,---,0.00,VWS V14.01,2013-08-11 04:48:00,
2013-08-11 00:53:00,52.4,50.2,30.12,WNW,300,1.0,3.0,92,0.00,,---,0.00,VWS V14.01,2013-08-11 04:53:00,
2013-08-11 00:58:00,52.4,50.2,30.12,WNW,300,1.0,3.0,92,0.00,,---,0.00,VWS V14.01,2013-08-11 04:58:00,
2013-08-11 01:00:00,53.0,50.5,30.13,NW,309,2.0,4.0,91,0.00,,---,0.01,VWS V14.01,2013-08-11 05:00:00,
2013-08-11 01:03:00,52.4,50.4,30.12,WNW,300,2.0,3.0,93,0.00,,---,0.00,VWS V14.01,2013-08-11 05:03:00,
2013-08-11 01:08:00,52.6,50.6,30.13,WNW,300,2.0,4.0,93,0.00,,---,0.00,VWS V14.01,2013-08-11 05:08:00,
2013-08-11 01:13:00,52.6,50.6,30.12,WNW,300,1.0,4.0,93,0.00,,---,0.00,VWS V14.01,2013-08-11 05:13:00,
2013-08-11 01:18:00,52.4,50.4,30.12,WNW,300,1.0,4.0,93,0.00,,---,0.00,VWS V14.01,2013-08-11 05:18:00,
2013-08-11 01:23:00,52.3,50.3,30.12,WNW,300,0.0,4.0,93,0.00,,---,0.00,VWS V14.01,2013-08-11 05:23:00,
2013-08-11 01:28:00,52.1,50.1,30.13,WNW,299,0.0,4.0,93,0.00,,---,0.00,VWS V14.01,2013-08-11 05:28:00,
2013-08-11 01:30:00,53.0,50.5,30.12,WNW,299,1.0,5.0,91,0.00,,---,0.00,VWS V14.01,2013-08-11 05:30:00,
2013-08-11 01:33:00,52.0,49.8,30.13,WNW,297,1.0,2.0,92,0.00,,---,0.00,VWS V14.01,2013-08-11 05:33:00,
2013-08-11 01:38:00,51.8,49.8,30.13,WNW,294,1.0,4.0,93,0.00,,---,0.00,VWS V14.01,2013-08-11 05:38:00,
2013-08-11 01:43:00,52.3,50.6,30.12,WNW,291,4.0,6.0,94,0.00,,---,0.00,VWS V14.01,2013-08-11 05:43:00,
2013-08-11 01:48:00,52.4,50.4,30.13,WNW,292,0.0,6.0,93,0.00,,---,0.00,VWS V14.01,2013-08-11 05:48:00,
2013-08-11 01:53:00,52.4,50.4,30.13,WNW,292,0.0,6.0,93,0.00,,---,0.00,VWS V14.01,2013-08-11 05:53:00,
2013-08-11 01:58:00,52.3,50.3,30.13,WNW,292,0.0,6.0,93,0.00,,---,0.00,VWS V14.01,2013-08-11 05:58:00,
2013-08-11 02:00:00,52.4,50.4,30.12,WNW,300,0.0,3.0,93,0.00,,---,0.00,VWS V14.01,2013-08-11 06:00:00,
2013-08-11 02:04:00,52.1,50.1,30.12,WNW,292,1.0,1.0,93,0.00,,---,0.00,VWS V14.01,2013-08-11 06:04:00,
2013-08-11 02:09:00,52.3,50.3,30.12,WNW,291,1.0,5.0,93,0.00,,---,0.00,VWS V14.01,2013-08-11 06:09:00,
2013-08-11 02:14:00,52.3,50.6,30.12,WNW,291,0.0,5.0,94,0.00,,---,0.00,VWS V14.01,2013-08-11 06:14:00,
2013-08-11 02:19:00,52.3,50.3,30.12,WNW,291,2.0,5.0,93,0.00,,---,0.00,VWS V14.01,2013-08-11 06:19:00,
2013-08-11 02:24:00,52.1,50.1,30.12,WNW,291,1.0,5.0,93,0.00,,---,0.00,VWS V14.01,2013-08-11 06:24:00,
2013-08-11 02:30:00,52.0,50.0,30.13,WNW,291,0.0,5.0,93,0.00,,---,0.00,VWS V14.01,2013-08-11 06:30:00,
2013-08-11 02:35:00,51.8,49.8,30.12,WNW,287,0.0,3.0,93,0.00,,---,0.00,VWS V14.01,2013-08-11 06:35:00,
2013-08-11 02:40:00,51.8,49.8,30.13,WNW,283,2.0,6.0,93,0.00,,---,0.00,VWS V14.01,2013-08-11 06:40:00,
2013-08-11 02:46:00,51.7,50.0,30.13,WNW,284,1.0,6.0,94,0.00,,---,0.00,VWS V14.01,2013-08-11 06:46:00,
2013-08-11 02:51:00,51.5,49.8,30.13,WNW,292,1.0,6.0,94,0.00,,---,0.00,VWS V14.01,2013-08-11 06:51:00,
2013-08-11 02:56:00,51.4,49.7,30.12,WNW,292,1.0,6.0,94,0.00,,---,0.00,VWS V14.01,2013-08-11 06:56:00,
2013-08-11 03:00:00,52.3,50.3,30.12,WNW,292,0.0,6.0,93,0.00,,---,0.00,VWS V14.01,2013-08-11 07:00:00,
2013-08-11 03:01:00,51.4,49.7,30.13,WNW,290,3.0,5.0,94,0.00,,---,0.00,VWS V14.01,2013-08-11 07:01:00,
2013-08-11 03:06:00,51.5,49.8,30.12,WNW,290,2.0,5.0,94,0.00,,---,0.00,VWS V14.01,2013-08-11 07:06:00,
2013-08-11 03:12:00,51.8,50.1,30.12,WNW,290,2.0,5.0,94,0.00,,---,0.00,VWS V14.01,2013-08-11 07:12:00,
2013-08-11 03:17:00,51.8,50.1,30.12,WNW,291,0.0,5.0,94,0.00,,---,0.00,VWS V14.01,2013-08-11 07:17:00,
2013-08-11 03:22:00,51.8,50.1,30.12,WNW,288,4.0,5.0,94,0.00,,---,0.00,VWS V14.01,2013-08-11 07:22:00,
2013-08-11 03:27:00,52.0,50.3,30.12,WNW,289,2.0,5.0,94,0.00,,---,0.00,VWS V14.01,2013-08-11 07:27:00,
2013-08-11 03:30:00,52.0,50.0,30.13,WNW,291,0.0,5.0,93,0.00,,---,0.00,VWS V14.01,2013-08-11 07:30:00,
2013-08-11 03:32:00,52.1,50.4,30.12,WNW,289,2.0,3.0,94,0.00,,---,0.00,VWS V14.01,2013-08-11 07:32:00,
2013-08-11 03:37:00,52.3,50.6,30.12,South,188,2.0,6.0,94,0.00,,---,0.00,VWS V14.01,2013-08-11 07:37:00,
2013-08-11 03:42:00,52.4,50.7,30.12,South,188,2.0,6.0,94,0.00,,---,0.00,VWS V14.01,2013-08-11 07:42:00,
2013-08-11 03:47:00,52.7,50.7,30.12,SSE,155,7.0,7.0,93,0.00,,---,0.00,VWS V14.01,2013-08-11 07:47:00,
2013-08-11 03:52:00,52.9,50.9,30.12,South,184,3.0,7.0,93,0.00,,---,0.00,VWS V14.01,2013-08-11 07:52:00,
2013-08-11 03:57:00,53.0,50.7,30.12,South,182,3.0,7.0,92,0.00,,---,0.00,VWS V14.01,2013-08-11 07:57:00,
2013-08-11 04:00:00,51.4,49.7,30.12,WNW,292,2.0,6.0,94,0.00,,---,0.00,VWS V14.01,2013-08-11 08:00:00,
2013-08-11 04:03:00,53.0,50.5,30.12,SSE,162,1.0,6.0,91,0.00,,---,0.00,VWS V14.01,2013-08-11 08:03:00,
2013-08-11 04:08:00,52.7,50.2,30.12,SSE,163,3.0,6.0,91,0.00,,---,0.00,VWS V14.01,2013-08-11 08:08:00,
2013-08-11 04:13:00,52.6,50.0,30.12,SSE,163,2.0,6.0,91,0.00,,---,0.00,VWS V14.01,2013-08-11 08:13:00,
2013-08-11 04:18:00,52.6,50.3,30.12,South,190,2.0,6.0,92,0.00,,---,0.00,VWS V14.01,2013-08-11 08:18:00,
2013-08-11 04:23:00,52.7,50.2,30.12,South,190,2.0,6.0,91,0.00,,---,0.00,VWS V14.01,2013-08-11 08:23:00,
2013-08-11 04:29:00,52.9,50.3,30.12,South,190,1.0,6.0,91,0.00,,---,0.00,VWS V14.01,2013-08-11 08:29:00,
2013-08-11 04:30:00,52.1,50.4,30.12,WNW,289,2.0,5.0,94,0.00,,---,0.00,VWS V14.01,2013-08-11 08:30:00,
2013-08-11 04:34:00,53.0,50.5,30.12,South,190,2.0,5.0,91,0.00,,---,0.00,VWS V14.01,2013-08-11 08:34:00,
2013-08-11 04:39:00,53.0,50.5,30.12,South,190,1.0,5.0,91,0.00,,---,0.00,VWS V14.01,2013-08-11 08:39:00,
2013-08-11 04:44:00,52.8,50.2,30.12,South,190,2.0,5.0,91,0.00,,---,0.00,VWS V14.01,2013-08-11 08:44:00,
2013-08-11 04:49:00,52.8,50.2,30.12,South,190,1.0,5.0,91,0.00,,---,0.00,VWS V14.01,2013-08-11 08:49:00,
2013-08-11 04:54:00,52.9,50.3,30.12,South,190,1.0,5.0,91,0.00,,---,0.00,VWS V14.01,2013-08-11 08:54:00,
2013-08-11 04:59:00,52.9,50.3,30.12,South,190,1.0,5.0,91,0.00,,---,0.00,VWS V14.01,2013-08-11 08:59:00,
2013-08-11 05:00:00,53.0,50.7,30.12,South,182,5.0,7.0,92,0.00,,---,0.00,VWS V14.01,2013-08-11 09:00:00,
2013-08-11 05:04:00,52.7,50.2,30.12,South,190,2.0,3.0,91,0.00,,---,0.00,VWS V14.01,2013-08-11 09:04:00,
2013-08-11 05:10:00,52.8,50.2,30.12,South,189,3.0,4.0,91,0.00,,---,0.00,VWS V14.01,2013-08-11 09:10:00,
2013-08-11 05:15:00,52.7,50.2,30.12,South,189,1.0,4.0,91,0.00,,---,0.00,VWS V14.01,2013-08-11 09:15:00,
2013-08-11 05:20:00,52.6,50.0,30.12,South,189,1.0,4.0,91,0.00,,---,0.00,VWS V14.01,2013-08-11 09:20:00,
2013-08-11 05:25:00,52.4,49.8,30.11,South,190,0.0,4.0,91,0.00,,---,0.00,VWS V14.01,2013-08-11 09:25:00,
2013-08-11 05:30:00,52.4,49.8,30.12,South,190,2.0,3.0,91,0.00,,---,0.00,VWS V14.01,2013-08-11 09:30:00,
2013-08-11 05:35:00,52.4,49.8,30.12,South,189,3.0,4.0,91,0.00,,---,0.00,VWS V14.01,2013-08-11 09:35:00,
2013-08-11 05:40:00,52.7,50.5,30.11,South,189,2.0,4.0,92,0.00,,---,0.00,VWS V14.01,2013-08-11 09:40:00,
2013-08-11 05:45:00,53.0,50.7,30.11,South,189,0.0,4.0,92,0.00,,---,0.00,VWS V14.01,2013-08-11 09:45:00,
2013-08-11 05:50:00,53.0,50.7,30.11,South,189,2.0,5.0,92,0.00,,---,0.00,VWS V14.01,2013-08-11 09:50:00,
2013-08-11 05:55:00,53.2,50.7,30.11,South,189,3.0,5.0,91,0.00,,---,0.00,VWS V14.01,2013-08-11 09:55:00,
2013-08-11 06:00:00,53.3,50.7,30.12,South,190,2.0,4.0,91,0.00,,---,0.00,VWS V14.01,2013-08-11 10:00:00,
2013-08-11 06:05:00,53.5,50.9,30.12,South,190,0.0,4.0,91,0.00,,---,0.00,VWS V14.01,2013-08-11 10:05:00,
2013-08-11 06:11:00,53.6,51.0,30.12,South,190,1.0,5.0,91,0.00,,---,0.00,VWS V14.01,2013-08-11 10:11:00,
2013-08-11 06:16:00,53.6,51.0,30.12,South,190,2.0,5.0,91,0.00,,---,0.00,VWS V14.01,2013-08-11 10:16:00,
2013-08-11 06:21:00,53.5,50.6,30.12,South,190,2.0,5.0,90,0.00,,---,0.00,VWS V14.01,2013-08-11 10:21:00,
2013-08-11 06:26:00,53.5,50.9,30.11,South,190,3.0,5.0,91,0.00,,---,0.00,VWS V14.01,2013-08-11 10:26:00,
2013-08-11 06:30:00,52.4,49.8,30.12,South,190,3.0,4.0,91,0.00,,---,0.00,VWS V14.01,2013-08-11 10:30:00,
2013-08-11 06:31:00,53.6,51.0,30.12,South,181,5.0,6.0,91,0.00,,---,0.00,VWS V14.01,2013-08-11 10:31:00,
2013-08-11 06:36:00,53.9,51.3,30.12,South,183,4.0,6.0,91,0.00,,---,0.00,VWS V14.01,2013-08-11 10:36:00,
2013-08-11 06:41:00,54.2,51.3,30.12,SSW,193,4.0,7.0,90,0.00,,---,0.00,VWS V14.01,2013-08-11 10:41:00,
2013-08-11 06:46:00,54.3,51.4,30.12,SSE,167,2.0,7.0,90,0.00,,---,0.00,VWS V14.01,2013-08-11 10:46:00,
2013-08-11 06:51:00,54.3,51.4,30.12,South,176,3.0,7.0,90,0.00,,---,0.00,VWS V14.01,2013-08-11 10:51:00,
2013-08-11 06:56:00,54.3,51.4,30.12,South,187,2.0,7.0,90,0.00,,---,0.00,VWS V14.01,2013-08-11 10:56:00,
2013-08-11 07:00:00,53.3,51.0,30.11,South,190,2.0,5.0,92,0.00,,---,0.00,VWS V14.01,2013-08-11 11:00:00,
2013-08-11 07:01:00,54.6,51.7,30.12,SSW,196,1.0,5.0,90,0.00,,---,0.00,VWS V14.01,2013-08-11 11:01:00,
2013-08-11 07:06:00,54.6,51.4,30.12,South,174,2.0,5.0,89,0.00,,---,0.00,VWS V14.01,2013-08-11 11:06:00,
2013-08-11 07:12:00,54.6,51.4,30.12,South,174,3.0,5.0,89,0.00,,---,0.00,VWS V14.01,2013-08-11 11:12:00,
2013-08-11 07:17:00,54.6,51.7,30.12,South,180,3.0,5.0,90,0.00,,---,0.00,VWS V14.01,2013-08-11 11:17:00,
2013-08-11 07:22:00,54.8,51.6,30.12,South,180,2.0,6.0,89,0.00,,---,0.00,VWS V14.01,2013-08-11 11:22:00,
2013-08-11 07:27:00,54.7,51.5,30.12,South,179,2.0,6.0,89,0.00,,---,0.00,VWS V14.01,2013-08-11 11:27:00,
2013-08-11 07:30:00,53.6,51.0,30.11,South,183,3.0,5.0,91,0.00,,---,0.00,VWS V14.01,2013-08-11 11:30:00,
2013-08-11 07:32:00,54.8,51.6,30.12,South,179,3.0,4.0,89,0.00,,---,0.00,VWS V14.01,2013-08-11 11:32:00,
2013-08-11 07:37:00,54.9,52.0,30.11,South,178,1.0,5.0,90,0.00,,---,0.00,VWS V14.01,2013-08-11 11:37:00,
2013-08-11 07:43:00,55.3,52.7,30.11,South,177,3.0,5.0,91,0.00,,---,0.00,VWS V14.01,2013-08-11 11:43:00,
2013-08-11 07:48:00,56.2,53.6,30.11,South,183,4.0,6.0,91,0.00,,---,0.00,VWS V14.01,2013-08-11 11:48:00,
2013-08-11 07:53:00,56.8,53.9,30.11,SSE,164,3.0,6.0,90,0.00,,---,0.00,VWS V14.01,2013-08-11 11:53:00,
2013-08-11 07:58:00,57.0,53.5,30.11,South,181,3.0,6.0,88,0.00,,---,0.00,VWS V14.01,2013-08-11 11:58:00,
2013-08-11 08:00:00,54.5,51.6,30.12,South,184,4.0,7.0,90,0.00,,---,0.00,VWS V14.01,2013-08-11 12:00:00,
2013-08-11 08:03:00,57.1,53.6,30.11,South,180,0.0,6.0,88,0.00,,---,0.00,VWS V14.01,2013-08-11 12:03:00,
2013-08-11 08:08:00,57.3,53.8,30.12,South,181,1.0,6.0,88,0.00,,---,0.00,VWS V14.01,2013-08-11 12:08:00,
2013-08-11 08:13:00,57.4,53.9,30.12,South,181,3.0,6.0,88,0.00,,---,0.00,VWS V14.01,2013-08-11 12:13:00,
2013-08-11 08:19:00,57.6,54.1,30.12,South,180,1.0,6.0,88,0.00,,---,0.00,VWS V14.01,2013-08-11 12:19:00,
2013-08-11 08:24:00,57.7,54.2,30.12,South,179,2.0,6.0,88,0.00,,---,0.00,VWS V14.01,2013-08-11 12:24:00,
2013-08-11 08:29:00,57.9,54.7,30.11,South,179,2.0,6.0,89,0.00,,---,0.00,VWS V14.01,2013-08-11 12:29:00,
2013-08-11 08:30:00,54.8,51.9,30.12,South,179,1.0,6.0,90,0.00,,---,0.00,VWS V14.01,2013-08-11 12:30:00,
2013-08-11 08:34:00,58.0,54.8,30.11,South,179,0.0,5.0,89,0.00,,---,0.00,VWS V14.01,2013-08-11 12:34:00,
2013-08-11 08:39:00,58.4,55.2,30.12,South,179,3.0,5.0,89,0.00,,---,0.00,VWS V14.01,2013-08-11 12:39:00,
2013-08-11 08:45:00,58.5,55.3,30.12,South,178,3.0,6.0,89,0.00,,---,0.00,VWS V14.01,2013-08-11 12:45:00,
2013-08-11 08:50:00,58.8,55.6,30.12,South,179,1.0,6.0,89,0.00,,---,0.00,VWS V14.01,2013-08-11 12:50:00,
2013-08-11 08:55:00,59.0,55.8,30.12,South,178,2.0,6.0,89,0.00,,---,0.00,VWS V14.01,2013-08-11 12:55:00,
2013-08-11 09:00:00,59.4,56.2,30.12,South,172,3.0,4.0,89,0.00,,---,0.00,VWS V14.01,2013-08-11 13:00:00,
2013-08-11 09:05:00,59.7,56.8,30.12,South,173,2.0,5.0,90,0.00,,---,0.00,VWS V14.01,2013-08-11 13:05:00,
2013-08-11 09:10:00,59.9,56.7,30.12,South,176,5.0,7.0,89,0.00,,---,0.00,VWS V14.01,2013-08-11 13:10:00,
2013-08-11 09:15:00,60.2,57.0,30.12,South,178,4.0,7.0,89,0.00,,---,0.00,VWS V14.01,2013-08-11 13:15:00,
2013-08-11 09:20:00,60.3,57.0,30.12,South,183,2.0,7.0,89,0.00,,---,0.00,VWS V14.01,2013-08-11 13:20:00,
2013-08-11 09:25:00,60.5,57.2,30.12,South,183,3.0,7.0,89,0.00,,---,0.00,VWS V14.01,2013-08-11 13:25:00,
2013-08-11 09:30:00,60.8,57.5,30.12,South,183,0.0,3.0,89,0.00,,---,0.00,VWS V14.01,2013-08-11 13:30:00,
2013-08-11 09:35:00,61.0,57.7,30.12,South,183,2.0,4.0,89,0.00,,---,0.00,VWS V14.01,2013-08-11 13:35:00,
2013-08-11 09:40:00,61.3,58.0,30.12,South,182,3.0,4.0,89,0.00,,---,0.00,VWS V14.01,2013-08-11 13:40:00,
2013-08-11 09:45:00,61.6,58.3,30.12,South,183,1.0,4.0,89,0.00,,---,0.00,VWS V14.01,2013-08-11 13:45:00,
2013-08-11 09:50:00,62.1,58.8,30.12,South,183,4.0,5.0,89,0.00,,---,0.00,VWS V14.01,2013-08-11 13:50:00,
2013-08-11 09:55:00,62.4,58.8,30.12,South,183,0.0,5.0,88,0.00,,---,0.00,VWS V14.01,2013-08-11 13:55:00,
2013-08-11 10:00:00,59.4,56.2,30.12,South,172,4.0,6.0,89,0.00,,---,0.00,VWS V14.01,2013-08-11 14:00:00,
2013-08-11 10:01:00,62.8,59.5,30.12,South,183,2.0,4.0,89,0.00,,---,0.00,VWS V14.01,2013-08-11 14:01:00,
2013-08-11 10:06:00,63.3,60.0,30.12,South,170,2.0,4.0,89,0.00,,---,0.00,VWS V14.01,2013-08-11 14:06:00,
2013-08-11 10:11:00,63.8,60.5,30.12,South,183,1.0,4.0,89,0.00,,---,0.00,VWS V14.01,2013-08-11 14:11:00,
2013-08-11 10:16:00,64.5,60.9,30.12,SSW,194,0.0,5.0,88,0.00,,---,0.00,VWS V14.01,2013-08-11 14:16:00,
2013-08-11 10:21:00,64.6,61.0,30.12,ESE,118,4.0,5.0,88,0.00,,---,0.00,VWS V14.01,2013-08-11 14:21:00,
2013-08-11 10:26:00,64.9,61.3,30.11,ESE,102,1.0,5.0,88,0.00,,---,0.00,VWS V14.01,2013-08-11 14:26:00,
2013-08-11 10:30:00,60.7,57.4,30.11,South,183,1.0,7.0,89,0.00,,---,0.00,VWS V14.01,2013-08-11 14:30:00,
2013-08-11 10:31:00,65.4,61.4,30.11,SSW,199,1.0,3.0,87,0.00,,---,0.00,VWS V14.01,2013-08-11 14:31:00,
2013-08-11 10:36:00,65.6,61.6,30.11,SSW,199,0.0,3.0,87,0.00,,---,0.00,VWS V14.01,2013-08-11 14:36:00,
2013-08-11 10:41:00,66.0,62.0,30.11,South,188,0.0,4.0,87,0.00,,---,0.00,VWS V14.01,2013-08-11 14:41:00,
2013-08-11 10:46:00,66.6,62.3,30.11,SSW,192,3.0,6.0,86,0.00,,---,0.00,VWS V14.01,2013-08-11 14:46:00,
2013-08-11 10:51:00,67.0,62.3,30.12,SSW,205,4.0,6.0,85,0.00,,---,0.00,VWS V14.01,2013-08-11 14:51:00,
2013-08-11 10:56:00,67.4,62.7,30.11,SSE,165,3.0,6.0,85,0.00,,---,0.00,VWS V14.01,2013-08-11 14:56:00,
2013-08-11 11:00:00,62.7,59.4,30.12,South,183,4.0,5.0,89,0.00,,---,0.00,VWS V14.01,2013-08-11 15:00:00,
2013-08-11 11:01:00,68.0,63.0,30.11,WSW,240,3.0,5.0,84,0.00,,---,0.00,VWS V14.01,2013-08-11 15:01:00,
2013-08-11 11:06:00,68.5,63.5,30.11,WSW,242,2.0,5.0,84,0.00,,---,0.00,VWS V14.01,2013-08-11 15:06:00,
2013-08-11 11:11:00,68.8,62.7,30.11,South,175,3.0,8.0,81,0.00,,---,0.00,VWS V14.01,2013-08-11 15:11:00,
2013-08-11 11:16:00,69.0,62.6,30.11,West,270,0.0,8.0,80,0.00,,---,0.00,VWS V14.01,2013-08-11 15:16:00,
2013-08-11 11:21:00,69.5,63.4,30.11,West,265,2.0,8.0,81,0.00,,---,0.00,VWS V14.01,2013-08-11 15:21:00,
2013-08-11 11:26:00,69.8,60.8,30.11,NW,319,0.0,8.0,73,0.00,,---,0.00,VWS V14.01,2013-08-11 15:26:00,
2013-08-11 11:30:00,65.3,61.3,30.11,SSW,199,1.0,5.0,87,0.00,,---,0.00,VWS V14.01,2013-08-11 15:30:00,
2013-08-11 11:31:00,69.8,60.8,30.11,WNW,282,4.0,5.0,73,0.00,,---,0.00,VWS V14.01,2013-08-11 15:31:00,
2013-08-11 11:36:00,70.0,59.8,30.11,NNE,27,3.0,9.0,70,0.00,,---,0.00,VWS V14.01,2013-08-11 15:36:00,
2013-08-11 11:41:00,70.3,60.5,30.10,NW,306,3.0,9.0,71,0.00,,---,0.00,VWS V14.01,2013-08-11 15:41:00,
2013-08-11 11:46:00,70.2,60.4,30.10,NW,311,4.0,9.0,71,0.00,,---,0.00,VWS V14.01,2013-08-11 15:46:00,
2013-08-11 11:52:00,70.2,58.3,30.10,WNW,290,0.0,10.0,66,0.00,,---,0.00,VWS V14.01,2013-08-11 15:52:00,
2013-08-11 11:57:00,70.2,59.2,30.10,North,359,5.0,10.0,68,0.00,,---,0.00,VWS V14.01,2013-08-11 15:57:00,
2013-08-11 12:00:00,67.8,62.8,30.11,SSW,213,0.0,7.0,84,0.00,,---,0.00,VWS V14.01,2013-08-11 16:00:00,
2013-08-11 12:02:00,70.0,59.0,30.09,NW,325,1.0,5.0,68,0.00,,---,0.00,VWS V14.01,2013-08-11 16:02:00,
2013-08-11 12:07:00,70.3,59.2,30.10,WNW,291,1.0,5.0,68,0.00,,---,0.00,VWS V14.01,2013-08-11 16:07:00,
2013-08-11 12:12:00,70.7,58.8,30.10,West,279,2.0,5.0,66,0.00,,---,0.00,VWS V14.01,2013-08-11 16:12:00,
2013-08-11 12:17:00,70.7,59.2,30.10,NW,308,2.0,6.0,67,0.00,,---,0.00,VWS V14.01,2013-08-11 16:17:00,
2013-08-11 12:22:00,70.7,57.9,30.10,WNW,289,2.0,6.0,64,0.00,,---,0.00,VWS V14.01,2013-08-11 16:22:00,
2013-08-11 12:27:00,71.0,59.1,30.11,West,275,3.0,6.0,66,0.00,,---,0.00,VWS V14.01,2013-08-11 16:27:00,
2013-08-11 12:30:00,69.8,60.8,30.11,NW,316,2.0,8.0,73,0.00,,---,0.00,VWS V14.01,2013-08-11 16:30:00,
2013-08-11 12:32:00,70.9,58.6,30.10,West,265,5.0,7.0,65,0.00,,---,0.00,VWS V14.01,2013-08-11 16:32:00,
2013-08-11 12:37:00,71.0,58.7,30.10,North,358,2.0,7.0,65,0.00,,---,0.00,VWS V14.01,2013-08-11 16:37:00,
2013-08-11 12:43:00,71.7,59.3,30.11,NW,321,0.0,7.0,65,0.00,,---,0.00,VWS V14.01,2013-08-11 16:43:00,
2013-08-11 12:48:00,72.0,58.7,30.11,WNW,291,4.0,8.0,63,0.00,,---,0.00,VWS V14.01,2013-08-11 16:48:00,
2013-08-11 12:53:00,72.2,59.4,30.11,NW,319,3.0,8.0,64,0.00,,---,0.00,VWS V14.01,2013-08-11 16:53:00,
2013-08-11 12:58:00,71.7,58.0,30.11,WSW,246,0.0,8.0,62,0.00,,---,0.00,VWS V14.01,2013-08-11 16:58:00,
2013-08-11 13:00:00,70.0,59.0,30.10,NW,322,4.0,10.0,68,0.00,,---,0.00,VWS V14.01,2013-08-11 17:00:00,
2013-08-11 13:03:00,71.2,56.6,30.11,NW,323,6.0,9.0,60,0.00,,---,0.00,VWS V14.01,2013-08-11 17:03:00,
2013-08-11 13:08:00,70.8,56.7,30.11,NW,326,3.0,9.0,61,0.00,,---,0.00,VWS V14.01,2013-08-11 17:08:00,
2013-08-11 13:13:00,70.7,56.2,30.10,NW,320,3.0,9.0,60,0.00,,---,0.00,VWS V14.01,2013-08-11 17:13:00,
2013-08-11 13:18:00,70.8,57.6,30.10,WNW,293,3.0,9.0,63,0.00,,---,0.00,VWS V14.01,2013-08-11 17:18:00,
2013-08-11 13:23:00,70.8,57.6,30.11,SW,234,1.0,9.0,63,0.00,,---,0.00,VWS V14.01,2013-08-11 17:23:00,
2013-08-11 13:28:00,71.0,58.2,30.11,West,276,2.0,9.0,64,0.00,,---,0.00,VWS V14.01,2013-08-11 17:28:00,
2013-08-11 13:30:00,71.0,59.1,30.10,NW,306,0.0,6.0,66,0.00,,---,0.00,VWS V14.01,2013-08-11 17:30:00,
2013-08-11 13:34:00,71.4,57.7,30.11,WNW,286,5.0,9.0,62,0.00,,---,0.00,VWS V14.01,2013-08-11 17:34:00,
2013-08-11 13:39:00,71.4,58.2,30.11,WSW,258,4.0,9.0,63,0.00,,---,0.00,VWS V14.01,2013-08-11 17:39:00,
2013-08-11 13:44:00,71.5,59.1,30.11,West,270,4.0,9.0,65,0.00,,---,0.00,VWS V14.01,2013-08-11 17:44:00,
2013-08-11 13:49:00,71.2,57.1,30.11,SSE,150,0.0,9.0,61,0.00,,---,0.00,VWS V14.01,2013-08-11 17:49:00,
2013-08-11 13:54:00,71.2,57.1,30.11,SE,145,2.0,9.0,61,0.00,,---,0.00,VWS V14.01,2013-08-11 17:54:00,
2013-08-11 13:59:00,71.0,56.4,30.10,ESE,115,1.0,9.0,60,0.00,,---,0.00,VWS V14.01,2013-08-11 17:59:00,
2013-08-11 14:00:00,71.5,57.4,30.11,WSW,246,3.0,8.0,61,0.00,,---,0.00,VWS V14.01,2013-08-11 18:00:00,
2013-08-11 14:04:00,70.8,57.2,30.10,ESE,107,2.0,5.0,62,0.00,,---,0.00,VWS V14.01,2013-08-11 18:04:00,
2013-08-11 14:09:00,71.2,57.5,30.10,SE,133,5.0,6.0,62,0.00,,---,0.00,VWS V14.01,2013-08-11 18:09:00,
2013-08-11 14:14:00,71.0,57.8,30.10,SE,136,3.0,6.0,63,0.00,,---,0.00,VWS V14.01,2013-08-11 18:14:00,
2013-08-11 14:19:00,71.2,58.4,30.11,ESE,114,3.0,6.0,64,0.00,,---,0.00,VWS V14.01,2013-08-11 18:19:00,
2013-08-11 14:25:00,71.4,57.7,30.11,SSE,149,4.0,6.0,62,0.00,,---,0.00,VWS V14.01,2013-08-11 18:25:00,
2013-08-11 14:29:00,71.3,56.7,30.11,SE,144,4.0,6.0,60,0.00,,---,0.00,VWS V14.01,2013-08-11 18:29:00,
2013-08-11 14:30:00,71.2,58.4,30.11,West,278,1.0,9.0,64,0.00,,---,0.00,VWS V14.01,2013-08-11 18:30:00,
2013-08-11 14:35:00,71.2,58.0,30.11,North,11,3.0,6.0,63,0.00,,---,0.00,VWS V14.01,2013-08-11 18:35:00,
2013-08-11 14:40:00,71.2,58.0,30.11,West,272,3.0,6.0,63,0.00,,---,0.00,VWS V14.01,2013-08-11 18:40:00,
2013-08-11 14:45:00,71.4,58.2,30.10,NNW,341,5.0,6.0,63,0.00,,---,0.00,VWS V14.01,2013-08-11 18:45:00,
2013-08-11 14:50:00,71.7,57.5,30.10,WNW,284,1.0,6.0,61,0.00,,---,0.00,VWS V14.01,2013-08-11 18:50:00,
2013-08-11 14:55:00,72.0,57.8,30.10,North,5,5.0,7.0,61,0.00,,---,0.00,VWS V14.01,2013-08-11 18:55:00,
2013-08-11 15:00:00,71.7,58.9,30.10,WNW,294,0.0,0.0,64,0.00,,---,0.00,VWS V14.01,2013-08-11 19:00:00,
2013-08-11 15:05:00,71.7,58.0,30.10,West,266,2.0,8.0,62,0.00,,---,0.00,VWS V14.01,2013-08-11 19:05:00,
2013-08-11 15:10:00,71.7,57.5,30.10,West,280,3.0,8.0,61,0.00,,---,0.00,VWS V14.01,2013-08-11 19:10:00,
2013-08-11 15:15:00,72.0,58.3,30.10,NNW,340,1.0,8.0,62,0.00,,---,0.00,VWS V14.01,2013-08-11 19:15:00,
2013-08-11 15:20:00,72.2,58.0,30.10,West,265,3.0,8.0,61,0.00,,---,0.00,VWS V14.01,2013-08-11 19:20:00,
2013-08-11 15:25:00,72.7,59.4,30.09,SE,142,5.0,8.0,63,0.00,,---,0.00,VWS V14.01,2013-08-11 19:25:00,
2013-08-11 15:30:00,71.2,56.6,30.11,SE,144,3.0,6.0,60,0.00,,---,0.00,VWS V14.01,2013-08-11 19:30:00,
2013-08-11 15:31:00,72.5,57.4,30.09,SE,139,1.0,5.0,59,0.00,,---,0.00,VWS V14.01,2013-08-11 19:31:00,
2013-08-11 15:36:00,72.2,58.0,30.09,SE,144,5.0,7.0,61,0.00,,---,0.00,VWS V14.01,2013-08-11 19:36:00,
2013-08-11 15:41:00,72.4,57.3,30.08,SE,128,2.0,8.0,59,0.00,,---,0.00,VWS V14.01,2013-08-11 19:41:00,
2013-08-11 15:46:00,72.7,57.6,30.09,SSE,158,0.0,8.0,59,0.00,,---,0.00,VWS V14.01,2013-08-11 19:46:00,
2013-08-11 15:51:00,72.9,56.8,30.08,SE,127,2.0,8.0,57,0.00,,---,0.00,VWS V14.01,2013-08-11 19:51:00,
2013-08-11 15:56:00,72.9,57.3,30.08,SE,142,2.0,8.0,58,0.00,,---,0.00,VWS V14.01,2013-08-11 19:56:00,
2013-08-11 16:00:00,71.7,58.9,30.10,WNW,294,0.0,7.0,64,0.00,,---,0.00,VWS V14.01,2013-08-11 20:00:00,
2013-08-11 16:01:00,73.7,57.5,30.08,SSE,158,6.0,7.0,57,0.00,,---,0.00,VWS V14.01,2013-08-11 20:01:00,
2013-08-11 16:06:00,74.2,58.0,30.08,South,187,1.0,7.0,57,0.00,,---,0.00,VWS V14.01,2013-08-11 20:06:00,
2013-08-11 16:11:00,74.2,57.0,30.08,NNW,331,4.0,8.0,55,0.00,,---,0.00,VWS V14.01,2013-08-11 20:11:00,
2013-08-11 16:17:00,73.6,56.0,30.08,WSW,240,5.0,10.0,54,0.00,,---,0.00,VWS V14.01,2013-08-11 20:17:00,
2013-08-11 16:22:00,73.4,57.3,30.08,NNW,334,5.0,10.0,57,0.00,,---,0.00,VWS V14.01,2013-08-11 20:22:00,
2013-08-11 16:27:00,73.6,57.0,30.08,WSW,247,5.0,10.0,56,0.00,,---,0.00,VWS V14.01,2013-08-11 20:27:00,
2013-08-11 16:30:00,72.5,57.8,30.09,SE,137,5.0,8.0,60,0.00,,---,0.00,VWS V14.01,2013-08-11 20:30:00,
2013-08-11 16:32:00,73.7,57.5,30.07,NW,318,3.0,6.0,57,0.00,,---,0.00,VWS V14.01,2013-08-11 20:32:00,
2013-08-11 16:37:00,73.8,56.6,30.07,WNW,284,2.0,8.0,55,0.00,,---,0.00,VWS V14.01,2013-08-11 20:37:00,
2013-08-11 16:43:00,73.6,57.4,30.07,West,280,2.0,8.0,57,0.00,,---,0.00,VWS V14.01,2013-08-11 20:43:00,
2013-08-11 16:48:00,73.8,56.1,30.07,West,277,3.0,8.0,54,0.00,,---,0.00,VWS V14.01,2013-08-11 20:48:00,
2013-08-11 16:53:00,73.4,57.7,30.07,WSW,242,4.0,8.0,58,0.00,,---,0.00,VWS V14.01,2013-08-11 20:53:00,
2013-08-11 16:58:00,73.6,57.0,30.07,SW,235,3.0,9.0,56,0.00,,---,0.00,VWS V14.01,2013-08-11 20:58:00,
2013-08-11 17:00:00,73.6,58.9,30.08,SSE,150,1.0,8.0,60,0.00,,---,0.00,VWS V14.01,2013-08-11 21:00:00,
2013-08-11 17:03:00,73.4,56.8,30.07,West,274,4.0,7.0,56,0.00,,---,0.00,VWS V14.01,2013-08-11 21:03:00,
2013-08-11 17:08:00,73.6,57.9,30.07,SW,223,4.0,9.0,58,0.00,,---,0.00,VWS V14.01,2013-08-11 21:08:00,
2013-08-11 17:13:00,72.9,58.2,30.07,WNW,303,0.0,9.0,60,0.00,,---,0.00,VWS V14.01,2013-08-11 21:13:00,
2013-08-11 17:18:00,73.2,58.5,30.07,West,272,4.0,9.0,60,0.00,,---,0.00,VWS V14.01,2013-08-11 21:18:00,
2013-08-11 17:23:00,73.6,57.4,30.07,WSW,244,4.0,9.0,57,0.00,,---,0.00,VWS V14.01,2013-08-11 21:23:00,
2013-08-11 17:28:00,72.9,58.2,30.06,WNW,297,1.0,9.0,60,0.00,,---,0.00,VWS V14.01,2013-08-11 21:28:00,
2013-08-11 17:30:00,73.5,57.3,30.07,West,261,2.0,10.0,57,0.00,,---,0.00,VWS V14.01,2013-08-11 21:30:00,
2013-08-11 17:34:00,72.9,57.3,30.07,West,281,3.0,9.0,58,0.00,,---,0.00,VWS V14.01,2013-08-11 21:34:00,
2013-08-11 17:39:00,72.5,57.4,30.06,West,280,4.0,9.0,59,0.00,,---,0.00,VWS V14.01,2013-08-11 21:39:00,
2013-08-11 17:44:00,73.2,58.5,30.06,WNW,301,4.0,9.0,60,0.00,,---,0.00,VWS V14.01,2013-08-11 21:44:00,
2013-08-11 17:49:00,73.6,57.0,30.06,West,260,5.0,9.0,56,0.00,,---,0.00,VWS V14.01,2013-08-11 21:49:00,
2013-08-11 17:54:00,73.4,56.3,30.07,WNW,291,5.0,10.0,55,0.00,,---,0.00,VWS V14.01,2013-08-11 21:54:00,
2013-08-11 17:59:00,73.2,56.1,30.06,WSW,245,2.0,10.0,55,0.00,,---,0.00,VWS V14.01,2013-08-11 21:59:00,
2013-08-11 18:00:00,73.4,56.3,30.06,WNW,282,0.0,9.0,55,0.00,,---,0.00,VWS V14.01,2013-08-11 22:00:00,
2013-08-11 18:04:00,73.4,57.3,30.06,West,273,5.0,7.0,57,0.00,,---,0.00,VWS V14.01,2013-08-11 22:04:00,
2013-08-11 18:10:00,73.2,57.1,30.06,WNW,283,3.0,8.0,57,0.00,,---,0.00,VWS V14.01,2013-08-11 22:10:00,
2013-08-11 18:15:00,73.4,57.7,30.06,WNW,303,2.0,8.0,58,0.00,,---,0.00,VWS V14.01,2013-08-11 22:15:00,
2013-08-11 18:20:00,73.2,57.5,30.06,WNW,290,1.0,8.0,58,0.00,,---,0.00,VWS V14.01,2013-08-11 22:20:00,
2013-08-11 18:25:00,73.2,57.5,30.06,NNW,336,4.0,9.0,58,0.00,,---,0.00,VWS V14.01,2013-08-11 22:25:00,
2013-08-11 18:30:00,73.2,58.0,30.05,NNW,339,0.0,2.0,59,0.00,,---,0.00,VWS V14.01,2013-08-11 22:30:00,
2013-08-11 18:35:00,73.2,58.0,30.05,WNW,290,5.0,8.0,59,0.00,,---,0.00,VWS V14.01,2013-08-11 22:35:00,
2013-08-11 18:41:00,73.1,58.4,30.05,West,259,8.0,8.0,60,0.00,,---,0.00,VWS V14.01,2013-08-11 22:41:00,
2013-08-11 18:46:00,72.5,58.8,30.05,WSW,247,2.0,9.0,62,0.00,,---,0.00,VWS V14.01,2013-08-11 22:46:00,
2013-08-11 18:51:00,72.5,58.3,30.05,West,280,2.0,9.0,61,0.00,,---,0.00,VWS V14.01,2013-08-11 22:51:00,
2013-08-11 18:56:00,72.5,58.3,30.05,WSW,256,2.0,9.0,61,0.00,,---,0.00,VWS V14.01,2013-08-11 22:56:00,
2013-08-11 19:00:00,73.2,56.1,30.06,WNW,286,6.0,10.0,55,0.00,,---,0.00,VWS V14.01,2013-08-11 23:00:00,
2013-08-11 19:01:00,72.0,57.4,30.05,SW,226,2.0,5.0,60,0.00,,---,0.00,VWS V14.01,2013-08-11 23:01:00,
2013-08-11 19:06:00,72.0,57.8,30.05,NW,313,3.0,5.0,61,0.00,,---,0.00,VWS V14.01,2013-08-11 23:06:00,
2013-08-11 19:11:00,72.2,58.5,30.05,NNW,328,2.0,7.0,62,0.00,,---,0.00,VWS V14.01,2013-08-11 23:11:00,
2013-08-11 19:16:00,72.0,58.3,30.05,SSE,155,3.0,7.0,62,0.00,,---,0.00,VWS V14.01,2013-08-11 23:16:00,
2013-08-11 19:21:00,72.0,58.7,30.05,SE,136,2.0,7.0,63,0.00,,---,0.00,VWS V14.01,2013-08-11 23:21:00,
2013-08-11 19:26:00,71.8,58.5,30.05,SSE,167,0.0,7.0,63,0.00,,---,0.00,VWS V14.01,2013-08-11 23:26:00,
2013-08-11 19:30:00,73.2,58.5,30.05,NNW,338,2.0,9.0,60,0.00,,---,0.00,VWS V14.01,2013-08-11 23:30:00,
2013-08-11 19:31:00,71.7,58.5,30.05,SSE,157,2.0,4.0,63,0.00,,---,0.00,VWS V14.01,2013-08-11 23:31:00,
2013-08-11 19:36:00,71.5,58.3,30.05,SE,138,2.0,6.0,63,0.00,,---,0.00,VWS V14.01,2013-08-11 23:36:00,
2013-08-11 19:41:00,71.2,58.0,30.05,SE,127,0.0,6.0,63,0.00,,---,0.00,VWS V14.01,2013-08-11 23:41:00,
2013-08-11 19:46:00,71.0,57.8,30.05,SE,126,3.0,6.0,63,0.00,,---,0.00,VWS V14.01,2013-08-11 23:46:00,
2013-08-11 19:51:00,70.7,57.9,30.05,North,0,0.0,6.0,64,0.00,,---,0.00,VWS V14.01,2013-08-11 23:51:00,
2013-08-11 19:56:00,70.3,58.0,30.05,ESE,115,1.0,7.0,65,0.00,,---,0.00,VWS V14.01,2013-08-11 23:56:00,
2013-08-11 20:00:00,72.2,57.6,30.05,SSW,205,2.0,9.0,60,0.00,,---,0.00,VWS V14.01,2013-08-12 00:00:00,
2013-08-11 20:01:00,69.8,57.5,30.05,East,95,3.0,4.0,65,0.00,,---,0.00,VWS V14.01,2013-08-12 00:01:00,
2013-08-11 20:06:00,69.5,57.2,30.05,WNW,296,4.0,7.0,65,0.00,,---,0.00,VWS V14.01,2013-08-12 00:06:00,
2013-08-11 20:11:00,69.2,57.0,30.05,West,279,3.0,9.0,65,0.00,,---,0.00,VWS V14.01,2013-08-12 00:11:00,
2013-08-11 20:17:00,68.8,56.1,30.05,WNW,287,2.0,9.0,64,0.00,,---,0.00,VWS V14.01,2013-08-12 00:17:00,
2013-08-11 20:22:00,68.3,56.1,30.05,West,277,0.0,9.0,65,0.00,,---,0.00,VWS V14.01,2013-08-12 00:22:00,
2013-08-11 20:27:00,67.9,56.1,30.05,West,275,2.0,9.0,66,0.00,,---,0.00,VWS V14.01,2013-08-12 00:27:00,
2013-08-11 20:30:00,71.7,58.5,30.05,SE,137,2.0,7.0,63,0.00,,---,0.00,VWS V14.01,2013-08-12 00:30:00,
2013-08-11 20:32:00,67.5,56.6,30.05,WNW,288,0.0,3.0,68,0.00,,---,0.00,VWS V14.01,2013-08-12 00:32:00,
2013-08-11 20:37:00,67.1,56.6,30.05,WNW,284,0.0,4.0,69,0.00,,---,0.00,VWS V14.01,2013-08-12 00:37:00,
2013-08-11 20:42:00,66.8,56.3,30.05,WNW,282,1.0,4.0,69,0.00,,---,0.00,VWS V14.01,2013-08-12 00:42:00,
2013-08-11 20:47:00,66.5,56.8,30.05,West,276,1.0,5.0,71,0.00,,---,0.00,VWS V14.01,2013-08-12 00:47:00,
2013-08-11 20:52:00,66.2,56.5,30.05,West,274,0.0,5.0,71,0.00,,---,0.00,VWS V14.01,2013-08-12 00:52:00,
2013-08-11 20:57:00,65.9,56.6,30.05,WNW,286,1.0,5.0,72,0.00,,---,0.00,VWS V14.01,2013-08-12 00:57:00,
2013-08-11 21:00:00,70.0,57.7,30.06,ESE,113,2.0,7.0,65,0.00,,---,0.00,VWS V14.01,2013-08-12 01:00:00,
2013-08-11 21:03:00,65.2,56.3,30.05,WNW,286,0.0,2.0,73,0.00,,---,0.00,VWS V14.01,2013-08-12 01:03:00,
2013-08-11 21:08:00,64.9,56.4,30.05,WNW,283,0.0,3.0,74,0.00,,---,0.00,VWS V14.01,2013-08-12 01:08:00,
2013-08-11 21:13:00,64.6,56.5,30.05,WNW,282,0.0,5.0,75,0.00,,---,0.00,VWS V14.01,2013-08-12 01:13:00,
2013-08-11 21:18:00,64.4,56.3,30.05,WNW,282,0.0,5.0,75,0.00,,---,0.00,VWS V14.01,2013-08-12 01:18:00,
2013-08-11 21:23:00,64.4,56.3,30.06,WNW,292,1.0,5.0,75,0.00,,---,0.00,VWS V14.01,2013-08-12 01:23:00,
2013-08-11 21:28:00,64.1,56.4,30.05,WNW,291,0.0,5.0,76,0.00,,---,0.00,VWS V14.01,2013-08-12 01:28:00,
2013-08-11 21:30:00,67.7,56.0,30.05,WNW,288,2.0,9.0,66,0.00,,---,0.00,VWS V14.01,2013-08-12 01:30:00,
2013-08-11 21:33:00,63.8,56.1,30.05,WNW,291,0.0,1.0,76,0.00,,---,0.00,VWS V14.01,2013-08-12 01:33:00,
2013-08-11 21:38:00,63.3,56.0,30.05,WNW,291,0.0,1.0,77,0.00,,---,0.00,VWS V14.01,2013-08-12 01:38:00,
2013-08-11 21:43:00,63.0,56.0,30.06,WNW,290,0.0,1.0,78,0.00,,---,0.00,VWS V14.01,2013-08-12 01:43:00,
2013-08-11 21:48:00,62.5,56.2,30.06,WNW,289,0.0,2.0,80,0.00,,---,0.00,VWS V14.01,2013-08-12 01:48:00,
2013-08-11 21:53:00,62.0,56.1,30.06,WNW,285,0.0,2.0,81,0.00,,---,0.00,VWS V14.01,2013-08-12 01:53:00,
2013-08-11 21:58:00,61.6,55.7,30.06,WNW,291,0.0,2.0,81,0.00,,---,0.00,VWS V14.01,2013-08-12 01:58:00,
2013-08-11 22:00:00,65.6,56.3,30.05,WNW,286,0.0,5.0,72,0.00,,---,0.00,VWS V14.01,2013-08-12 02:00:00,
2013-08-11 22:03:00,61.1,55.6,30.06,WNW,291,0.0,0.0,82,0.00,,---,0.00,VWS V14.01,2013-08-12 02:03:00,
2013-08-11 22:08:00,60.6,55.4,30.06,WNW,291,0.0,0.0,83,0.00,,---,0.00,VWS V14.01,2013-08-12 02:08:00,
2013-08-11 22:13:00,60.0,55.5,30.06,WNW,291,0.0,2.0,85,0.00,,---,0.00,VWS V14.01,2013-08-12 02:13:00,
2013-08-11 22:19:00,59.7,55.8,30.06,WNW,291,0.0,2.0,87,0.00,,---,0.00,VWS V14.01,2013-08-12 02:19:00,
2013-08-11 22:24:00,59.7,55.8,30.06,WNW,291,1.0,3.0,87,0.00,,---,0.00,VWS V14.01,2013-08-12 02:24:00,
2013-08-11 22:29:00,59.2,55.0,30.06,WNW,291,3.0,3.0,86,0.00,,---,0.00,VWS V14.01,2013-08-12 02:29:00,
2013-08-11 22:30:00,64.0,56.3,30.05,WNW,291,0.0,5.0,76,0.00,,---,0.00,VWS V14.01,2013-08-12 02:30:00,
2013-08-11 22:34:00,58.6,55.1,30.06,WNW,291,1.0,4.0,88,0.00,,---,0.00,VWS V14.01,2013-08-12 02:34:00,
2013-08-11 22:39:00,58.5,55.0,30.06,WNW,291,1.0,4.0,88,0.00,,---,0.00,VWS V14.01,2013-08-12 02:39:00,
2013-08-11 22:45:00,58.5,55.0,30.05,WNW,291,0.0,4.0,88,0.00,,---,0.00,VWS V14.01,2013-08-12 02:45:00,
2013-08-11 22:50:00,58.0,54.5,30.05,WNW,291,0.0,4.0,88,0.00,,---,0.00,VWS V14.01,2013-08-12 02:50:00,
2013-08-11 22:55:00,58.0,55.1,30.05,WNW,291,3.0,4.0,90,0.00,,---,0.00,VWS V14.01,2013-08-12 02:55:00,
2013-08-11 23:00:00,57.7,54.8,30.06,WNW,291,1.0,2.0,90,0.00,,---,0.00,VWS V14.01,2013-08-12 03:00:00,
2013-08-11 23:05:00,57.7,55.1,30.06,WNW,291,0.0,3.0,91,0.00,,---,0.00,VWS V14.01,2013-08-12 03:05:00,
2013-08-11 23:10:00,57.9,55.3,30.06,WNW,291,1.0,3.0,91,0.00,,---,0.00,VWS V14.01,2013-08-12 03:10:00,
2013-08-11 23:15:00,58.2,56.2,30.05,WNW,291,2.0,3.0,93,0.00,,---,0.00,VWS V14.01,2013-08-12 03:15:00,
2013-08-11 23:20:00,58.5,56.5,30.06,WNW,284,2.0,5.0,93,0.00,,---,0.00,VWS V14.01,2013-08-12 03:20:00,
2013-08-11 23:25:00,58.6,56.6,30.06,WNW,284,1.0,5.0,93,0.00,,---,0.00,VWS V14.01,2013-08-12 03:25:00,
2013-08-11 23:30:00,59.1,54.9,30.06,WNW,291,2.0,3.0,86,0.00,,---,0.00,VWS V14.01,2013-08-12 03:30:00,
2013-08-11 23:31:00,58.9,56.6,30.05,WNW,284,1.0,2.0,92,0.00,,---,0.00,VWS V14.01,2013-08-12 03:31:00,
2013-08-11 23:36:00,59.1,56.8,30.05,WNW,284,1.0,3.0,92,0.00,,---,0.00,VWS V14.01,2013-08-12 03:36:00,
2013-08-11 23:41:00,58.9,56.3,30.06,WNW,284,3.0,3.0,91,0.00,,---,0.00,VWS V14.01,2013-08-12 03:41:00,
2013-08-11 23:46:00,58.8,56.2,30.06,West,270,0.0,5.0,91,0.00,,---,0.00,VWS V14.01,2013-08-12 03:46:00,
2013-08-11 23:51:00,58.6,56.0,30.06,West,270,2.0,5.0,91,0.00,,---,0.00,VWS V14.01,2013-08-12 03:51:00,
2013-08-11 23:56:00,58.6,56.0,30.06,West,270,4.0,5.0,91,0.00,,---,0.00,VWS V14.01,2013-08-12 03:56:00,